Miscellaneous Local Product
Issued by NWS North Platte, NE

Home | Current Version | Previous Version | Graphics & Text | Print | Product List | Glossary On
Versions: 1 2 3 4 5 6 7 8 9 10 11 12 13 14 15 16 17 18 19 20 21 22 23 24 25 26 27 28 29 30 31 32 33 34 35 36 37 38 39 40 41 42 43 44 45 46 47 48 49 50
095
AXUS43 KLBF 270110
MISLBF


WESTERN AND NORTH CENTRAL NEBRASKA HOURLY WEATHER ROUNDUP
NATIONAL WEATHER SERVICE NORTH PLATTE NE
700 PM CST SUN FEB 26 2017

NOTE: "FAIR" INDICATES FEW OR NO CLOUDS BELOW 12,000 FEET WITH NO
SIGNIFICANT WEATHER AND/OR OBSTRUCTIONS TO VISIBILITY.

NOTE: STATIONS NOT REPORTING VARIABLES SUCH AS SKY/WEATHER OR
PRESSURE ARE PROVIDED BY RAWS AND APRS NETWORKS AND ARE NOT UNDER
NATIONAL WEATHER SERVICE QUALITY CONTROL.

...OBSERVATIONS IN AND NEAR THE EASTERN PANHANDLE OF NEBRASKA...

CITY           SKY/WX    TMP DP  RH WIND       PRES   REMARKS
PINE RIDGE     CLEAR     20  12  71 CALM      29.82R
CHADRON        CLOUDY    16   9  74 SW7       29.82R WCI   6
ALLIANCE       CLOUDY    17   9  70 SW9       29.82R WCI   6
SIDNEY         CLEAR     28  15  58 CALM      29.82S
CRESCENT LAKE    N/A     25  15  64 W3          N/A
$$

...OBSERVATIONS IN NORTHERN NEBRASKA AND FAR SOUTHERN SOUTH DAKOTA...

CITY           SKY/WX    TMP DP  RH WIND       PRES   REMARKS
WINNER         FAIR      30  20  66 SW14      29.84R WCI  19
VALENTINE      CLOUDY    21  12  68 SW10      29.85R WCI  10
THEDFORD       CLOUDY    24  15  68 SW5       29.87S WCI  19
AINSWORTH      CLOUDY    25  17  73 SW9       29.87R WCI  15
O`NEILL        CLEAR     31  21  65 SW6       29.90R WCI  25
ORD            CLEAR     29  18  63 SW5       29.91R WCI  24
BROKEN BOW     CLEAR     32  19  58 W5        29.90R WCI  27
VALENTINE NWR    N/A     27  15  60 SW7         N/A  WCI  20
BUTTE            N/A     29  21  71 S7          N/A  WCI  22
HALSEY           N/A     30  12  48 CALM        N/A
CHAMBERS         N/A     29  15  54 CALM        N/A
EWING            N/A     30  20  65 CALM        N/A
$$

...OBSERVATIONS IN SOUTHWEST NEBRASKA AND FAR NORTHEAST COLORADO...

CITY           SKY/WX    TMP DP  RH WIND       PRES   REMARKS
HOLYOKE        FAIR      32  18  55 E8        29.84S WCI  25
IMPERIAL       CLEAR     28  15  58 E7        29.87R WCI  21
OGALLALA       CLEAR     29  15  54 CALM      29.88S
NORTH PLATTE   CLEAR     28  13  53 N3        29.90R
MCCOOK         CLEAR     30   9  41 NE6       29.91S WCI  24
LEXINGTON      CLEAR     33  16  48 W3        29.93R
STAPLETON        N/A     27  14  57 CALM        N/A
GOTHENBURG       N/A     34  10  37 CALM        N/A
CALLAWAY         N/A     25  16  68 CALM        N/A
$$

...OBSERVATIONS IN CENTRAL LINCOLN COUNTY AREA...

CITY           SKY/WX    TMP DP  RH WIND       PRES   REMARKS
N.P. AIRPORT   CLEAR     28  13  53 N3        29.90R
N.P. DOWNTOWN    N/A     18  11  74 W3          N/A
N.P. SOUTHEAST   N/A     33  13  43 CALM        N/A
N.P. HILLCREST   N/A     32  14  47 NW3         N/A
$$

...SOME OBSERVATIONS FROM AROUND THE REGION...

CITY           SKY/WX    TMP DP  RH WIND       PRES   REMARKS
LARAMIE        CLOUDY    20   4  50 SW18      29.70S WCI   5
CHEYENNE       CLEAR     26   7  44 CALM      29.75R
DENVER         PTCLDY    34  -1  22 N7        29.74S WCI  28
AKRON          CLEAR     32   9  38 E7        29.77S WCI  26
SCOTTSBLUFF    CLOUDY    24  11  57 CALM      29.82S
RAPID CITY     CLEAR     28  16  60 CALM      29.75R
BISMARCK       CLOUDY    20  14  77 NE6       29.84R WCI  12
PIERRE         MOCLDY    36  15  42 W6        29.79R WCI  31
SIOUX FALLS    PTCLDY    31  25  78 SW8       29.88S WCI  23
OMAHA          CLEAR     36  25  64 NE3       29.97R
GRAND ISLAND   CLEAR     36  19  50 W6        29.94R WCI  31
KANSAS CITY    CLEAR     38  26  62 SE8       29.98R WCI  32
WICHITA        PTCLDY    47  23  38 N6        29.95R
OKLAHOMA CITY  PTCLDY    53  33  46 NW6       29.91R
DALLAS         CLOUDY    61  52  72 S5        29.87R
AMARILLO       CLOUDY    49  14  24 N3        29.85R
DODGE CITY     CLEAR     37  11  34 E8        29.91R WCI  31
HAYS           CLEAR     40   7  25 NE6       29.96R
GOODLAND       CLEAR     29   7  39 SE12      29.85R WCI  19
$$




USA.gov is the U.S. government's official web portal to all federal, state and local government web resources and services.